• In Belgien
  • Länderverzeichnis
  • Für 7 Tage
  • Wassertemperatur
  • Satellitenkarten
  • Wetterkarte
  • Widgets
  • user-avatar
    Anmelden

    Stündliche Wetter Albany

    Heute, 27 April, Freitag

    Zeit Temperatur Niederschläge Wind Luftdruck Luftfeuchtigkeit
    00:00 +17°C° 0 mm 4 m/S 758 mmHg 81%
    01:00 +17°C° 0 mm 3 m/S 758 mmHg 84%
    02:00 +16°C° 0 mm 3 m/S 758 mmHg 88%
    03:00 +16°C° 0 mm 3 m/S 759 mmHg 89%
    04:00 +16°C° 0 mm 3 m/S 759 mmHg 90%
    05:00 +16°C° 0 mm 2 m/S 759 mmHg 91%
    06:00 +17°C° 0 mm 2 m/S 760 mmHg 89%
    07:00 +17°C° 0 mm 2 m/S 760 mmHg 88%
    08:00 +18°C° 0 mm 3 m/S 761 mmHg 85%
    09:00 +19°C° 0,1 mm 3 m/S 761 mmHg 82%
    10:00 +19°C° 0,1 mm 3 m/S 762 mmHg 79%
    11:00 +20°C° 0,1 mm 4 m/S 762 mmHg 75%
    12:00 +20°C° 0,1 mm 4 m/S 762 mmHg 74%
    13:00 +20°C° 0,1 mm 4 m/S 762 mmHg 73%
    14:00 +20°C° 0,1 mm 4 m/S 762 mmHg 72%
    15:00 +19°C° 0 mm 4 m/S 762 mmHg 74%
    16:00 +18°C° 0 mm 4 m/S 763 mmHg 75%
    17:00 +18°C° 0 mm 4 m/S 763 mmHg 77%
    18:00 +18°C° 0 mm 4 m/S 764 mmHg 77%
    19:00 +17°C° 0 mm 4 m/S 764 mmHg 77%
    20:00 +17°C° 0 mm 4 m/S 765 mmHg 78%
    21:00 +17°C° 0 mm 4 m/S 765 mmHg 78%
    22:00 +17°C° 0 mm 4 m/S 765 mmHg 78%
    23:00 +17°C° 0 mm 4 m/S 765 mmHg 78%

    Morgen, 28 April, Samstag

    Zeit Temperatur Niederschläge Wind Luftdruck Luftfeuchtigkeit
    00:00 +17°C° 0 mm 4 m/S 765 mmHg 78%
    01:00 +17°C° 0 mm 4 m/S 766 mmHg 79%
    02:00 +16°C° 0 mm 3 m/S 766 mmHg 79%
    03:00 +16°C° 0 mm 3 m/S 766 mmHg 81%
    04:00 +14°C° 0 mm 3 m/S 766 mmHg 83%
    05:00 +14°C° 0 mm 3 m/S 766 mmHg 85%
    06:00 +14°C° 0 mm 3 m/S 766 mmHg 83%
    07:00 +15°C° 0 mm 4 m/S 766 mmHg 81%
    08:00 +15°C° 0 mm 4 m/S 766 mmHg 79%
    09:00 +18°C° 0 mm 4 m/S 766 mmHg 73%
    10:00 +19°C° 0 mm 4 m/S 766 mmHg 67%
    11:00 +21°C° 0 mm 4 m/S 766 mmHg 60%
    12:00 +22°C° 0 mm 4 m/S 765 mmHg 59%
    13:00 +22°C° 0 mm 5 m/S 765 mmHg 58%
    14:00 +23°C° 0 mm 5 m/S 765 mmHg 57%
    15:00 +22°C° 0 mm 5 m/S 765 mmHg 61%
    16:00 +21°C° 0 mm 5 m/S 765 mmHg 66%
    17:00 +21°C° 0 mm 5 m/S 765 mmHg 70%
    18:00 +20°C° 0 mm 5 m/S 765 mmHg 77%
    19:00 +17°C° 0 mm 5 m/S 765 mmHg 83%
    20:00 +16°C° 0 mm 5 m/S 765 mmHg 89%
    21:00 +16°C° 0 mm 5 m/S 765 mmHg 91%
    22:00 +16°C° 0 mm 5 m/S 765 mmHg 92%
    23:00 +16°C° 0 mm 5 m/S 765 mmHg 93%

    übermorgen, 29 April, Sonntag

    Zeit Temperatur Niederschläge Wind Luftdruck Luftfeuchtigkeit
    00:00 +16°C° 0 mm 5 m/S 765 mmHg 94%
    01:00 +16°C° 0 mm 5 m/S 764 mmHg 94%
    02:00 +16°C° 0 mm 5 m/S 764 mmHg 94%
    03:00 +16°C° 0 mm 5 m/S 764 mmHg 94%
    04:00 +16°C° 0 mm 5 m/S 764 mmHg 93%
    05:00 +16°C° 0 mm 5 m/S 763 mmHg 93%
    06:00 +17°C° 0 mm 5 m/S 763 mmHg 86%
    07:00 +19°C° 0 mm 5 m/S 763 mmHg 79%
    08:00 +20°C° 0 mm 6 m/S 763 mmHg 73%
    09:00 +22°C° 0 mm 5 m/S 763 mmHg 61%
    10:00 +26°C° 0 mm 5 m/S 763 mmHg 49%
    11:00 +28°C° 0 mm 5 m/S 762 mmHg 37%
    12:00 +29°C° 0 mm 5 m/S 762 mmHg 35%
    13:00 +30°C° 0 mm 5 m/S 761 mmHg 32%
    14:00 +32°C° 0 mm 5 m/S 761 mmHg 29%
    15:00 +29°C° 0 mm 5 m/S 760 mmHg 32%
    16:00 +28°C° 0 mm 4 m/S 760 mmHg 34%
    17:00 +27°C° 0 mm 4 m/S 760 mmHg 36%
    18:00 +26°C° 0 mm 4 m/S 760 mmHg 37%
    19:00 +23°C° 0 mm 4 m/S 760 mmHg 38%
    20:00 +22°C° 0 mm 4 m/S 760 mmHg 39%
    21:00 +22°C° 0 mm 4 m/S 760 mmHg 38%
    22:00 +21°C° 0 mm 4 m/S 760 mmHg 37%
    23:00 +21°C° 0 mm 4 m/S 760 mmHg 36%

    30 April, Montag

    Zeit Temperatur Niederschläge Wind Luftdruck Luftfeuchtigkeit
    00:00 +21°C° 0 mm 4 m/S 759 mmHg 37%
    01:00 +20°C° 0 mm 4 m/S 759 mmHg 37%
    02:00 +20°C° 0 mm 4 m/S 758 mmHg 38%
    03:00 +20°C° 0 mm 5 m/S 758 mmHg 40%
    04:00 +20°C° 0 mm 5 m/S 758 mmHg 42%
    05:00 +20°C° 0 mm 6 m/S 757 mmHg 44%
    06:00 +21°C° 0 mm 6 m/S 757 mmHg 44%
    07:00 +21°C° 0 mm 7 m/S 757 mmHg 45%
    08:00 +22°C° 0 mm 7 m/S 757 mmHg 46%
    09:00 +24°C° 0 mm 7 m/S 757 mmHg 42%
    10:00 +26°C° 0 mm 7 m/S 756 mmHg 39%
    11:00 +28°C° 0 mm 7 m/S 756 mmHg 36%
    12:00 +29°C° 0 mm 7 m/S 755 mmHg 34%
    13:00 +29°C° 0 mm 6 m/S 754 mmHg 33%
    14:00 +30°C° 0 mm 6 m/S 753 mmHg 31%
    15:00 +28°C° 0 mm 6 m/S 753 mmHg 39%
    16:00 +27°C° 0 mm 5 m/S 753 mmHg 46%
    17:00 +25°C° 0 mm 5 m/S 753 mmHg 54%
    18:00 +23°C° 0 mm 6 m/S 753 mmHg 62%
    19:00 +21°C° 0 mm 6 m/S 754 mmHg 70%
    20:00 +20°C° 0 mm 7 m/S 754 mmHg 78%
    21:00 +18°C° 0,1 mm 7 m/S 755 mmHg 77%
    22:00 +17°C° 0,1 mm 8 m/S 755 mmHg 76%
    23:00 +16°C° 0,1 mm 8 m/S 756 mmHg 75%

    1 Mai, Dienstag

    Zeit Temperatur Niederschläge Wind Luftdruck Luftfeuchtigkeit
    00:00 +16°C° 0,1 mm 8 m/S 756 mmHg 75%
    01:00 +15°C° 0,1 mm 8 m/S 756 mmHg 76%
    02:00 +15°C° 0,1 mm 8 m/S 756 mmHg 77%
    03:00 +14°C° 0 mm 7 m/S 757 mmHg 74%
    04:00 +14°C° 0 mm 7 m/S 757 mmHg 72%
    05:00 +12°C° 0 mm 7 m/S 758 mmHg 70%
    06:00 +12°C° 0 mm 7 m/S 758 mmHg 68%
    07:00 +14°C° 0 mm 7 m/S 759 mmHg 65%
    08:00 +14°C° 0 mm 7 m/S 760 mmHg 63%
    09:00 +14°C° 0 mm 7 m/S 760 mmHg 60%
    10:00 +14°C° 0 mm 6 m/S 760 mmHg 58%
    11:00 +15°C° 0 mm 6 m/S 760 mmHg 56%
    12:00 +15°C° 0,1 mm 6 m/S 760 mmHg 57%
    13:00 +14°C° 0,1 mm 5 m/S 760 mmHg 58%
    14:00 +14°C° 0,1 mm 5 m/S 760 mmHg 59%
    15:00 +14°C° 0,1 mm 5 m/S 760 mmHg 60%
    16:00 +14°C° 0,1 mm 4 m/S 760 mmHg 62%
    17:00 +13°C° 0,1 mm 4 m/S 761 mmHg 64%
    18:00 +13°C° 0 mm 4 m/S 761 mmHg 67%
    19:00 +12°C° 0 mm 3 m/S 761 mmHg 71%
    20:00 +11°C° 0 mm 3 m/S 762 mmHg 74%
    21:00 +11°C° 0 mm 4 m/S 761 mmHg 75%
    22:00 +11°C° 0 mm 4 m/S 761 mmHg 76%
    23:00 +11°C° 0 mm 4 m/S 761 mmHg 77%

    2 Mai, Mittwoch

    Zeit Temperatur Niederschläge Wind Luftdruck Luftfeuchtigkeit
    00:00 +11°C° 0,1 mm 4 m/S 761 mmHg 77%
    01:00 +10°C° 0,1 mm 5 m/S 761 mmHg 77%
    02:00 +10°C° 0,1 mm 5 m/S 761 mmHg 77%
    03:00 +10°C° 0,1 mm 5 m/S 761 mmHg 77%
    04:00 +10°C° 0,1 mm 5 m/S 761 mmHg 78%
    05:00 +10°C° 0,1 mm 5 m/S 761 mmHg 78%
    06:00 +12°C° 0,1 mm 5 m/S 761 mmHg 77%
    07:00 +12°C° 0,1 mm 5 m/S 761 mmHg 75%
    08:00 +12°C° 0,1 mm 5 m/S 762 mmHg 74%
    09:00 +14°C° 0 mm 5 m/S 762 mmHg 67%
    10:00 +15°C° 0 mm 5 m/S 761 mmHg 59%
    11:00 +17°C° 0 mm 5 m/S 761 mmHg 52%
    12:00 +17°C° 0 mm 5 m/S 761 mmHg 52%
    13:00 +17°C° 0 mm 5 m/S 761 mmHg 52%
    14:00 +17°C° 0 mm 5 m/S 760 mmHg 51%
    15:00 +17°C° 0,1 mm 5 m/S 761 mmHg 54%
    16:00 +16°C° 0,1 mm 5 m/S 761 mmHg 56%
    17:00 +16°C° 0,1 mm 5 m/S 761 mmHg 59%
    18:00 +15°C° 0,1 mm 5 m/S 761 mmHg 64%
    19:00 +14°C° 0,1 mm 5 m/S 762 mmHg 68%
    20:00 +13°C° 0,1 mm 5 m/S 762 mmHg 73%
    21:00 +13°C° 0,1 mm 5 m/S 762 mmHg 75%
    22:00 +12°C° 0,1 mm 5 m/S 762 mmHg 77%
    23:00 +12°C° 0,1 mm 5 m/S 763 mmHg 80%
    Mehr zeigen